Lapse_Rate
7.0 6.8 6.8 7.2 7.0 7.2 7.3 7.5 6.5 8.9 7.9 6.4 7.0 6.5 6.5 6.5 6.6 7.3 6.5 6.5 6.5 6.5 6.5 6.5 6.5 6.5 6.5 6.9 6.5 6.5 6.5 6.5 6.5 6.5 6.5 6.5 6.5 6.5 6.5 6.5 6.5 6.5 6.5 6.5
7.6 7.3 7.1 7.0 7.0 6.8 7.0 6.8 7.0 8.2 8.2 6.5 6.5 6.5 6.5 6.6 6.5 6.5 6.5 6.5 6.5 6.5 6.5 6.5 6.5 6.5 6.5 6.9 6.5 6.5 6.5 6.5 6.5 6.5 6.5 6.5 6.5 6.5 6.5 6.5 6.5 6.5 6.5 6.5
7.5 7.6 7.2 7.0 6.8 6.6 7.0 6.9 6.5 6.7 7.1 8.4 6.5 6.5 6.5 6.5 7.3 6.5 6.7 6.5 6.6 6.5 6.5 6.5 6.5 6.5 6.5 6.8 6.6 3.5 5.9 6.5 6.5 6.5 6.5 6.5 6.5 6.5 6.5 6.5 6.5 6.5 6.5 6.5
7.5 7.4 7.3 6.9 6.8 6.5 6.9 7.1 6.7 7.2 6.5 6.6 6.5 6.5 6.5 6.5 6.5 6.8 7.0 6.5 6.5 6.5 6.5 6.5 6.5 6.5 6.5 6.6 4.8 6.4 6.5 6.5 6.5 6.5 6.5 6.5 6.5 6.5 6.5 6.5 6.5 6.5 6.5 6.5
7.6 7.6 7.2 6.5 6.7 6.5 6.7 7.0 7.1 7.7 6.9 7.2 6.5 6.5 6.5 6.5 6.5 6.5 6.5 6.5 6.5 6.5 6.5 6.5 6.5 6.5 6.5 6.5 6.5 6.5 6.5 6.5 6.5 6.5 6.5 6.5 6.5 6.5 6.5 6.5 6.5 6.5 6.5 6.5
8.0 7.6 7.4 7.4 6.7 6.6 6.6 7.9 8.8 7.7 6.7 6.5 6.5 6.5 6.5 6.5 6.5 6.8 7.0 6.6 6.5 6.5 6.5 6.8 6.9 7.0 6.8 6.6 6.5 6.5 6.5 6.5 6.5 6.5 6.5 6.5 6.5 6.5 6.5 6.5 6.5 6.5 6.5 6.5
7.8 7.8 7.7 7.7 7.2 7.3 7.0 8.8 8.8 7.0 6.5 6.5 6.5 6.5 6.5 6.5 6.5 6.5 6.7 7.2 6.5 7.0 7.9 7.8 7.4 7.0 6.8 6.7 6.5 6.6 6.5 6.5 6.5 6.5 6.5 6.5 6.5 6.5 6.5 6.5 6.5 6.5 6.5 6.5
7.2 7.5 7.6 7.3 7.0 6.9 7.3 9.2 8.6 7.3 6.5 6.5 6.5 6.5 6.5 6.8 7.1 6.6 6.6 7.3 7.7 8.1 7.3 6.5 6.5 6.5 6.5 6.5 6.5 6.5 6.5 6.5 6.5 6.5 6.5 6.5 6.5 6.5 6.5 6.5 6.5 6.5 6.5 6.5
7.3 7.5 7.6 7.2 7.0 6.7 7.5 9.6 9.2 8.0 6.6 6.5 7.3 6.5 6.8 6.5 6.5 6.5 6.7 7.9 8.4 7.7 6.5 6.5 6.5 6.5 6.5 6.5 6.5 6.5 6.5 6.5 6.5 6.5 6.5 6.5 6.5 6.5 6.9 6.5 6.5 6.5 6.6 6.5
6.8 7.4 7.7 7.5 6.6 7.0 7.2 9.5 8.9 8.0 6.9 7.5 7.6 6.6 6.7 7.6 6.8 6.5 6.7 6.8 6.9 7.5 6.5 6.5 6.5 6.5 6.5 6.5 6.5 6.5 6.5 6.5 6.5 6.5 6.5 6.5 6.5 6.5 6.9 6.5 6.5 6.7 6.9 6.9
7.2 7.5 7.3 6.9 7.0 7.0 7.1 8.9 9.0 8.4 7.4 7.8 8.1 8.1 7.4 7.4 7.6 6.5 6.9 6.6 6.9 6.5 6.5 6.5 6.5 6.5 6.5 6.5 6.5 6.5 6.5 6.5 6.5 6.5 6.5 6.5 6.6 6.6 6.5 6.6 7.0 7.1 7.2 7.2
7.2 7.5 7.3 7.1 7.3 7.3 7.4 8.3 8.3 8.1 7.7 7.7 8.8 8.3 9.0 7.2 8.6 7.7 6.7 6.9 6.7 6.9 6.5 6.5 6.5 6.5 6.5 6.5 6.5 6.5 6.5 6.5 6.5 6.5 6.5 6.6 7.0 6.8 7.0 7.4 7.1 7.2 7.3 7.6
7.2 7.1 7.0 7.1 6.6 7.2 7.3 8.2 8.0 7.6 6.6 7.7 8.1 7.9 8.9 8.7 8.9 8.0 7.1 7.7 7.8 7.4 7.8 6.6 6.5 6.5 6.5 6.5 6.5 6.5 6.5 6.6 6.5 6.5 6.5 6.5 7.0 7.5 7.6 7.7 7.6 7.8 7.9 7.9
7.1 7.1 6.8 6.3 7.1 7.7 8.8 8.0 8.5 8.2 8.0 6.6 7.2 8.9 8.1 8.0 8.9 8.8 8.6 8.3 8.2 8.1 8.0 6.6 6.5 6.5 6.7 6.5 6.5 6.5 6.5 6.5 6.5 6.5 6.5 6.8 7.1 7.4 7.5 7.8 7.9 7.9 8.1 8.1
6.1 6.3 6.5 7.2 7.0 7.7 7.6 7.6 8.5 8.9 7.9 6.6 7.2 8.5 8.5 7.3 8.8 8.5 8.8 8.4 8.0 7.7 6.7 6.5 6.5 6.7 6.6 6.5 6.5 6.5 6.6 6.5 6.5 6.5 6.6 6.6 6.8 7.5 7.7 7.6 7.7 8.0 8.0 8.0
6.8 7.0 7.1 6.9 7.3 6.8 7.5 6.9 8.1 9.6 9.7 7.4 6.5 8.3 8.2 6.8 6.7 8.4 8.2 8.3 8.0 7.7 7.0 6.6 7.2 7.6 6.8 6.5 6.5 6.5 7.2 7.5 7.4 6.6 7.5 7.4 7.4 5.4 6.2 7.6 7.9 8.1 8.1 8.2
6.9 7.1 6.9 7.3 7.2 7.7 7.8 7.7 8.8 7.7 9.4 7.6 6.5 6.5 8.1 8.4 7.4 7.6 8.1 8.2 8.0 7.6 7.0 6.7 6.8 6.9 6.7 6.5 6.5 6.5 7.2 7.6 7.6 7.8 7.7 7.1 7.5 7.4 7.2 8.0 8.1 7.0 8.4 8.4
6.7 6.8 6.8 7.0 7.2 7.2 7.8 8.8 6.8 8.8 8.7 8.1 6.5 6.5 6.9 8.3 7.2 6.9 8.0 7.3 7.6 7.4 7.1 7.1 6.5 6.9 6.6 6.5 6.5 7.2 7.5 7.7 7.6 7.6 7.9 7.8 8.0 7.9 8.0 8.2 8.1 7.9 8.0 8.1
6.8 7.6 8.1 8.6 8.7 8.3 8.7 6.2 6.8 9.0 8.5 6.7 6.6 6.5 6.5 7.9 7.3 6.7 7.0 6.8 6.5 6.8 6.5 6.5 6.8 6.5 6.5 6.5 6.7 7.1 7.4 7.3 7.4 7.8 7.9 7.9 7.7 7.9 7.9 8.0 8.0 7.9 7.9 8.1
8.0 9.1 8.6 7.6 8.3 5.8 5.9 7.6 7.9 8.0 8.0 7.7 6.5 7.2 6.5 6.8 6.7 6.5 6.5 6.9 6.5 6.5 6.5 7.2 6.5 6.5 7.1 7.3 7.6 7.7 7.7 7.8 7.8 7.2 7.1 7.5 7.5 7.7 7.8 7.9 8.1 8.2 8.2 8.3
8.5 8.0 7.1 8.3 6.0 8.0 7.6 6.9 6.7 6.9 6.5 7.3 7.2 7.2 6.5 7.1 6.5 6.5 6.8 6.5 6.5 6.5 6.5 6.5 6.5 6.5 6.6 7.8 7.9 8.0 8.2 8.2 8.1 8.1 8.1 8.1 8.0 7.9 7.9 8.0 8.1 8.2 8.3 7.7
6.7 8.2 8.7 8.2 7.9 6.8 6.5 6.5 6.6 6.5 6.5 6.9 6.5 6.8 7.1 6.5 4.4 6.5 6.3 6.5 6.5 6.5 6.5 6.5 6.5 6.5 7.0 7.1 7.3 7.0 7.7 8.1 8.2 8.3 8.2 8.2 8.3 8.2 7.9 7.2 4.6 3.7 3.9 3.8
7.7 8.2 7.3 6.9 7.2 6.5 6.5 6.5 6.5 6.5 6.5 7.0 6.8 6.5 6.8 6.6 7.2 6.5 6.5 6.5 6.5 6.6 6.5 6.5 6.5 7.0 7.0 6.8 6.4 5.6 5.0 5.3 5.8 5.0 5.0 4.0 3.5 3.5 3.3 3.8 4.2 4.1 3.9 3.8
7.0 7.1 6.5 6.5 6.5 6.5 6.5 6.5 6.5 6.6 6.6 6.8 7.0 6.7 6.5 6.5 6.5 6.5 6.5 6.5 6.5 6.5 6.5 6.5 6.5 7.2 7.0 6.6 6.1 5.7 5.7 4.9 4.7 4.5 4.2 4.1 4.3 5.0 5.4 5.7 5.5 5.2 5.4 4.9
7.1 7.0 6.5 6.5 6.8 7.0 7.1 6.9 6.7 6.4 6.0 6.9 6.6 6.6 6.8 6.5 6.5 6.5 6.5 6.5 6.5 6.5 6.5 6.5 7.0 7.1 6.9 6.6 6.3 6.1 5.9 5.8 6.0 5.9 6.1 6.2 6.0 6.0 6.2 5.8 5.3 4.8 4.4 3.9
7.6 7.3 6.6 7.1 6.6 6.6 6.9 6.9 6.8 6.3 5.2 6.7 6.6 6.5 6.5 6.5 6.5 6.5 6.5 6.5 6.5 6.5 6.5 7.1 7.2 7.2 7.4 7.3 7.0 6.9 7.0 7.0 7.1 7.1 7.1 6.7 6.1 5.9 5.8 5.3 5.2 4.9 4.7 5.0
7.0 6.7 7.3 7.2 7.1 7.0 7.0 7.3 7.2 5.8 6.5 6.5 6.5 6.5 6.5 6.5 6.5 6.5 6.5 6.5 6.5 6.9 7.2 7.4 7.5 7.4 7.3 7.1 7.1 7.0 7.1 7.3 7.3 7.2 7.1 6.8 6.5 6.4 6.4 6.1 5.9 5.4 5.2 5.1
Wind_Speed
36 36 36 37 38 39 23 9 10 10 15 11 12 19 26 31 33 18 15 11 19 11 13 17 9 22 22 16 21 25 21 12 12 17 16 20 13 18 16 9 11 7 8 11
29 35 37 38 41 43 13 7 5 11 17 14 17 31 33 28 30 26 20 14 11 12 9 10 18 9 10 8 24 24 19 11 13 16 10 9 12 13 13 14 11 11 8 7
29 30 36 39 42 47 15 6 7 6 14 21 31 31 27 30 30 29 21 16 8 9 10 10 6 16 8 6 14 14 18 15 17 15 16 15 18 17 18 16 9 12 14 16
31 31 31 38 42 49 14 8 8 10 14 25 30 29 27 33 32 32 22 21 18 12 8 10 11 10 6 5 6 7 19 21 19 20 17 13 16 20 20 20 19 18 15 17
33 32 32 35 41 48 12 8 12 13 10 25 32 27 32 34 31 30 30 22 22 17 10 7 9 6 7 8 11 14 19 16 21 19 19 18 13 16 18 19 18 17 19 19
35 34 35 36 40 41 8 8 14 14 16 28 23 25 31 31 30 31 28 28 18 20 10 4 3 6 3 5 3 14 16 14 16 17 19 19 18 18 18 18 17 15 17 16
38 37 37 36 37 39 8 13 13 7 13 18 26 29 32 35 31 29 27 23 22 9 6 3 3 5 3 9 9 8 13 16 11 7 2 12 11 16 19 21 21 16 17 18
40 39 37 36 37 40 13 10 12 8 9 19 20 28 26 29 27 21 26 17 19 9 4 5 4 2 6 8 12 10 10 11 10 8 11 13 15 8 12 15 16 16 17 17
33 36 36 37 34 37 16 12 11 9 11 15 22 20 24 20 21 21 25 20 10 8 6 8 8 8 13 9 5 8 10 11 9 6 14 17 12 16 11 14 13 17 16 8
32 35 35 37 36 40 13 12 14 7 10 5 15 15 21 24 20 17 18 20 12 13 9 9 9 12 15 16 15 6 6 6 13 11 8 8 10 13 11 11 11 9 5 6
32 34 35 31 43 39 12 11 11 8 6 11 4 14 16 17 21 15 15 11 11 10 10 8 6 4 11 12 15 12 10 9 5 8 9 11 6 9 13 14 14 7 9 8
32 32 33 35 41 38 16 11 7 5 2 4 4 3 8 4 26 15 11 13 15 8 9 6 6 4 1 8 11 11 8 10 9 9 5 6 14 12 17 9 8 6 8 7
31 31 33 34 37 27 20 9 7 6 3 3 4 7 7 4 8 14 13 13 14 16 13 6 4 5 7 6 10 15 13 7 4 6 11 12 10 12 13 8 8 8 6 8
29 32 35 39 29 18 16 9 6 8 5 3 5 6 6 3 5 11 13 14 12 10 9 6 4 4 6 7 10 10 11 8 10 17 19 18 10 9 13 13 11 10 8 10
29 32 37 35 21 17 11 6 2 2 3 4 6 6 2 3 7 16 12 12 13 7 8 3 5 7 6 5 7 10 13 13 9 9 9 9 14 13 9 15 16 12 12 12
34 34 32 27 22 19 9 3 3 5 4 2 4 4 8 4 2 12 17 13 7 9 7 7 7 11 9 4 9 12 15 17 14 14 14 12 10 6 7 10 10 10 11 11
31 30 28 25 19 4 3 3 8 6 3 2 1 3 9 17 8 4 8 16 10 8 5 4 7 8 5 5 10 10 10 13 16 14 11 8 12 7 1 4 3 2 7 9
26 27 22 19 15 11 6 6 7 2 3 1 2 2 3 13 6 5 7 9 10 8 6 4 8 5 4 5 13 19 18 19 18 16 10 11 9 4 3 3 3 6 7 8
27 24 20 8 4 3 4 4 3 4 2 3 3 3 3 2 8 3 6 6 8 3 7 9 5 8 8 6 14 14 13 12 14 16 15 9 8 9 4 4 5 7 8 10
24 12 3 4 3 16 15 2 1 2 1 2 2 2 2 3 1 4 2 3 6 5 5 5 5 10 13 4 13 13 8 13 12 5 7 6 8 6 4 5 5 6 9 11
1 3 3 7 9 2 2 3 2 3 2 4 4 6 2 3 2 1 2 2 2 4 4 7 3 3 6 14 12 11 10 8 7 6 6 6 5 3 3 4 5 8 10 9
2 6 8 3 1 2 1 4 3 5 4 5 5 5 3 2 1 5 1 4 3 4 4 3 3 2 7 10 10 13 12 9 7 7 7 9 10 10 12 12 15 16 15 16
1 3 3 2 2 4 4 6 4 3 2 2 3 4 4 3 7 1 3 3 2 3 3 2 3 5 6 7 5 8 10 10 12 13 16 17 18 17 17 16 14 15 16 15
3 2 3 3 3 6 6 5 5 2 2 3 6 3 2 2 1 1 3 3 1 2 2 4 5 7 6 6 7 9 10 11 12 13 14 17 17 16 15 14 13 15 15 14
5 5 4 6 4 6 6 6 3 4 5 2 3 2 1 2 2 3 1 3 4 6 4 4 6 7 7 7 8 9 10 10 12 13 14 17 17 17 17 15 15 15 15 15
4 8 5 9 5 8 8 6 5 5 5 2 2 2 2 4 2 3 6 4 6 4 4 6 5 8 9 10 10 11 11 12 14 15 17 17 17 17 19 17 16 14 15 14
5 4 8 8 4 7 7 7 6 6 4 4 3 5 5 2 4 4 5 4 5 7 7 7 9 10 10 11 12 12 13 15 16 17 17 17 16 16 17 18 15 15 15 13
Wind_Direction
227 217 212 205 196 186 178 195 208 172 172 197 212 220 221 245 225 212 220 280 238 226 207 204 237 222 205 213 206 206 214 212 188 201 209 225 217 211 215 229 234 234 265 279
226 219 209 201 190 180 173 189 173 182 174 197 205 225 218 235 238 239 211 221 229 219 236 212 204 238 264 189 215 202 208 223 214 190 181 207 234 237 228 223 256 232 215 255
225 219 212 199 189 178 175 166 163 175 199 210 207 214 209 211 240 248 224 218 216 203 220 238 226 199 213 259 240 197 215 211 223 217 208 206 212 231 225 232 221 239 252 265
223 218 212 195 188 176 171 178 184 188 189 208 216 217 203 203 214 228 235 220 225 210 202 204 222 219 154 235 204 230 212 220 224 235 243 222 217 209 222 230 227 239 248 263
220 216 205 199 185 173 182 172 189 179 191 200 212 210 219 209 205 214 220 230 218 235 215 220 166 213 179 194 193 216 205 220 227 232 237 243 241 249 234 233 230 250 250 254
216 211 206 196 193 174 173 202 203 181 214 195 208 212 210 216 214 209 221 230 234 215 202 70 26 316 47 353 275 205 202 215 221 234 227 236 240 237 246 243 248 247 247 257
211 205 201 193 191 178 155 192 188 182 195 196 208 206 210 213 210 214 211 213 232 204 90 1 282 271 358 272 253 265 211 208 216 207 234 224 240 234 233 242 253 247 242 249
198 196 193 191 186 182 174 180 205 183 207 199 195 208 210 209 227 221 206 213 234 133 178 244 237 81 332 242 237 215 236 220 218 217 223 242 242 212 225 244 256 248 252 259
188 187 187 184 181 172 173 182 203 202 195 206 194 197 209 206 206 223 211 177 233 218 208 239 218 208 203 202 255 218 219 233 218 186 231 238 240 242 222 250 259 259 262 263
179 181 179 179 181 174 164 182 191 209 194 203 179 195 198 202 198 209 210 160 200 176 188 218 218 220 237 225 188 167 178 213 223 214 236 245 227 227 205 203 241 268 258 252
169 173 173 175 176 164 168 169 181 194 195 171 226 184 194 201 212 192 198 165 197 185 198 210 198 225 219 230 236 176 179 189 188 229 227 238 132 137 196 221 244 254 233 252
164 165 163 167 169 162 183 155 176 199 115 123 222 44 186 227 211 196 205 205 183 188 201 202 220 173 327 212 230 196 215 217 208 204 220 243 185 213 218 261 296 227 262 236
153 154 159 158 152 158 203 142 130 114 88 184 174 188 150 230 278 305 208 208 200 210 211 179 207 198 192 199 226 243 219 254 230 232 235 239 217 246 265 291 256 263 246 218
153 151 149 142 140 143 147 135 160 152 156 165 133 132 192 163 318 281 274 221 232 201 212 177 182 202 214 217 236 239 236 226 243 260 261 272 240 253 264 250 238 238 225 206
127 134 146 141 134 103 99 106 183 240 240 171 136 148 170 211 261 295 253 240 223 189 198 188 212 220 253 234 258 248 241 235 233 246 262 268 267 257 299 236 235 230 221 202
107 113 131 138 126 106 117 103 142 206 212 94 164 104 158 151 293 294 244 219 212 201 211 209 224 217 210 238 243 243 241 251 245 258 264 289 329 316 317 294 245 220 226 209
108 107 102 108 131 153 96 147 148 178 175 182 130 193 172 173 164 282 243 228 213 221 207 221 216 205 196 252 245 251 263 258 250 261 277 281 263 273 6 287 253 225 215 214
114 100 94 102 122 137 79 97 135 180 105 326 205 227 202 177 164 220 205 199 218 234 227 239 220 217 205 244 245 252 258 265 274 280 259 262 292 288 243 251 186 202 195 183
107 112 103 77 61 66 67 76 331 28 324 186 172 204 193 168 201 155 193 191 187 203 214 225 228 218 220 231 249 266 271 276 279 261 260 248 262 274 252 222 204 192 169 164
127 138 128 102 77 115 139 144 101 170 169 136 235 225 211 339 6 185 133 203 150 178 205 202 246 242 238 319 340 309 327 340 331 298 272 264 267 269 244 228 205 174 161 156
67 84 57 92 149 219 32 108 157 148 216 226 230 209 222 69 305 243 251 157 168 196 178 188 213 215 0 348 342 345 345 335 326 334 326 321 328 293 156 137 114 124 139 131
49 90 113 150 137 70 146 175 168 206 217 172 175 151 120 71 360 245 166 178 193 183 127 150 161 44 352 357 7 11 7 7 23 28 59 61 65 80 82 76 72 78 90 92
161 139 85 170 167 205 208 179 190 170 150 179 165 139 124 187 231 146 199 129 116 128 177 87 61 357 2 360 9 32 33 47 62 65 72 77 74 72 85 91 88 89 87 91
56 13 110 337 103 24 27 332 346 29 313 176 150 113 155 225 285 318 77 46 68 199 133 71 15 355 11 36 48 67 60 64 70 74 78 81 83 80 79 83 92 96 94 94
42 9 45 41 343 33 0 332 283 347 313 273 79 89 91 21 45 21 97 169 83 26 46 26 4 9 35 51 61 72 73 75 79 84 87 87 88 88 85 80 83 85 88 87
52 33 357 355 26 8 359 350 346 344 326 263 64 97 121 57 42 51 16 42 39 31 19 11 27 43 57 69 74 78 80 82 86 85 87 85 85 86 86 80 75 76 82 86
33 51 30 6 13 347 338 337 343 312 307 32 22 45 25 18 59 63 17 38 22 15 41 43 48 65 71 75 76 75 79 83 85 86 83 82 84 85 83 83 81 82 80 79